Regional Weather Roundup
Issued by NWS

Home | Current Version | Previous Version | Text Only | Print | Product List | Glossary On
Versions: 1 2 3 4 5 6 7 8 9 10 11 12 13 14 15 16 17 18 19 20 21 22 23 24 25 26 27 28 29 30 31 32 33 34 35 36 37 38 39 40 41 42 43 44 45 46 47 48 49 50
000
ASUS45 KBOI 062110
RWRID

IDAHO REGIONAL WEATHER ROUNDUP
NATIONAL WEATHER SERVICE BOISE ID
200 PM MST SAT FEB 06 2016

NOTE: "FAIR" INDICATES FEW OR NO CLOUDS BELOW 12000 FEET
WITH NO SIGNIFICANT WEATHER AND/OR OBSTRUCTIONS TO VISIBILITY

IDZ012-014-062200-
SOUTHWEST IDAHO


CITY           SKY/WX    TMP DP  RH WIND       PRES   REMARKS
BOISE          CLOUDY    44  31  60 NW3       30.43F
CALDWELL       CLOUDY    40  30  67 VRB3      30.46F
MOUNTAIN HOME  PTSUNNY   43  33  67 E9        30.43F
$$

IDZ016-017-062200-
SOUTHCENTRAL IDAHO


CITY           SKY/WX    TMP DP  RH WIND       PRES   REMARKS
BURLEY         LGT RAIN  44  30  57 SW13      30.39F
JEROME         CLOUDY    37  24  59 S3        30.42F
TWIN FALLS     CLOUDY    43  26  51 S12       30.41F
$$

IDZ019>023-062200-
SOUTHEAST IDAHO


CITY           SKY/WX    TMP DP  RH WIND       PRES   REMARKS
IDAHO FALLS    CLOUDY    28  22  78 N5        30.39F WCI  23
POCATELLO      CLOUDY    39  24  55 S15G25    30.38F WCI  31
REXBURG        CLOUDY    26  21  81 S5        30.39S WCI  20
$$

IDZ006-010-011-018-031-032-062200-
CENTRAL IDAHO MOUNTAINS


CITY           SKY/WX    TMP DP  RH WIND       PRES   REMARKS
MCCALL         CLOUDY    34  27  75 SW3       30.36F
HAILEY         PTSUNNY   32  21  64 CALM      30.39F
STANLEY          N/A     38  18  44 E8        30.35F WCI  32
SALMON         CLOUDY    27  18  69 W3        30.29F
CHALLIS        CLOUDY    30  18  60 CALM      30.29F
$$

IDZ002-004-006-007-026-062200-
NORTHERN IDAHO


CITY           SKY/WX    TMP DP  RH WIND       PRES   REMARKS
LEWISTON       CLOUDY    51  27  39 N6        30.39S
LOWELL           N/A     45  38  76 CALM      30.41F
COEUR D`ALENE  CLOUDY    41  32  70 SW16      30.33S
MULLAN PASS    CLOUDY    24  21  88 W12G21    30.20S WCI  13
$$




USA.gov is the U.S. government's official web portal to all federal, state and local government web resources and services.